| time (UTC) | temp F | wind direction | speed MPH | gust MPH | rain 1hr in | rain 24hr in | rain mn in | humidity % | barometer mb |
| 20260502201529 | 70 | 316 | 4.0 | 9.0 | 0.00 | 0.00 | 0.00 | 59 | 1015.3 |
| 20260502194532 | 67 | 203 | 2.0 | 5.0 | 0.00 | 0.00 | 0.00 | 69 | 1015.7 |
| 20260502193105 | 65 | 7 | 6.0 | 11.0 | 0.00 | 0.00 | 0.00 | 68 | 1015.9 |
| 20260502191753 | 0 | 0 | 0.0 | 0.0 | 0.00 | 0.00 | 0.00 | 100 | |
| 20260502183103 | 63 | 187 | 8.0 | 11.0 | 0.00 | 0.00 | 0.00 | 73 | 1016.8 |
| 20260502181530 | 61 | 169 | 5.0 | 8.0 | 0.00 | 0.00 | 0.00 | 75 | 1016.9 |
| 20260502163145 | 56 | 14 | 4.0 | 8.0 | 0.00 | 0.00 | 0.00 | 83 | 1016.8 |
| 20260502161605 | 56 | 44 | 3.0 | 5.0 | 0.00 | 0.00 | 0.00 | 85 | 1016.7 |
| 20260502150104 | 52 | 91 | 0.0 | 0.0 | 0.00 | 0.00 | 0.00 | 93 | 1016.2 |
| 20260502123106 | 51 | 247 | 0.0 | 0.0 | 0.00 | 0.00 | 0.00 | 89 | 1015.3 |
| 20260502121529 | 52 | 247 | 0.0 | 0.0 | 0.00 | 0.00 | 0.00 | 89 | 1015.3 |
| 20260502114533 | 52 | 242 | 1.0 | 3.0 | 0.00 | 0.00 | 0.00 | 89 | 1015.5 |
| 20260502113030 | 51 | 153 | 1.0 | 4.0 | 0.00 | 0.00 | 0.00 | 90 | 1015.5 |
| 20260502111532 | 51 | 162 | 0.0 | 3.0 | 0.00 | 0.00 | 0.00 | 89 | 1015.5 |
| 20260502110037 | 52 | 211 | 0.0 | 3.0 | 0.00 | 0.00 | 0.00 | 88 | 1015.6 |
| 20260502104535 | 52 | 247 | 0.0 | 4.0 | 0.00 | 0.00 | 0.00 | 87 | 1015.7 |
| 20260502103030 | 52 | 247 | 0.0 | 1.0 | 0.00 | 0.00 | 0.00 | 87 | 1016.1 |
| 20260502101605 | 52 | 247 | 0.0 | 2.0 | 0.00 | 0.00 | 0.00 | 88 | 1016.2 |
| 20260502091534 | 52 | 157 | 0.0 | 2.0 | 0.00 | 0.00 | 0.00 | 87 | 1016.5 |
| 20260502070030 | 54 | 135 | 1.0 | 4.0 | 0.00 | 0.00 | 0.00 | 81 | 1016.5 |
| 20260502063029 | 57 | 124 | 0.0 | 3.0 | 0.00 | 0.00 | 0.00 | 75 | 1016.7 |
| 20260502061534 | 59 | 138 | 0.0 | 2.0 | 0.00 | 0.00 | 0.00 | 70 | 1016.6 |
| 20260502060030 | 60 | 172 | 1.0 | 7.0 | 0.00 | 0.00 | 0.00 | 69 | 1016.6 |
| 20260502054525 | 61 | 133 | 4.0 | 7.0 | 0.00 | 0.00 | 0.00 | 68 | 1016.3 |
| 20260502053031 | 60 | 121 | 4.0 | 10.0 | 0.00 | 0.00 | 0.00 | 70 | 1016.3 |
| 20260502051533 | 58 | 200 | 0.0 | 6.0 | 0.00 | 0.00 | 0.00 | 72 | 1016.4 |
| 20260502050031 | 60 | 171 | 0.0 | 3.0 | 0.00 | 0.00 | 0.00 | 69 | 1016.2 |
| 20260502044531 | 61 | 164 | 0.0 | 2.0 | 0.00 | 0.00 | 0.00 | 68 | 1016.1 |
| 20260502043031 | 62 | 130 | 4.0 | 6.0 | 0.00 | 0.00 | 0.00 | 66 | 1015.9 |
| 20260502041531 | 63 | 352 | 0.0 | 4.0 | 0.00 | 0.00 | 0.00 | 65 | 1015.7 |
| 20260502034532 | 64 | 268 | 4.0 | 8.0 | 0.00 | 0.00 | 0.00 | 60 | 1015.1 |
| 20260502033032 | 65 | 148 | 5.0 | 9.0 | 0.00 | 0.00 | 0.00 | 58 | 1015.5 |
| 20260502031531 | 66 | 153 | 8.0 | 12.0 | 0.00 | 0.00 | 0.00 | 57 | 1015.5 |
| 20260502030029 | 66 | 145 | 6.0 | 9.0 | 0.00 | 0.00 | 0.00 | 55 | 1015.1 |
| 20260502024533 | 68 | 106 | 2.0 | 6.0 | 0.00 | 0.00 | 0.00 | 51 | 1014.8 |
| 20260502023031 | 69 | 42 | 3.0 | 8.0 | 0.00 | 0.00 | 0.00 | 49 | 1014.5 |
| 20260502021531 | 70 | 30 | 4.0 | 8.0 | 0.00 | 0.00 | 0.00 | 45 | 1014.3 |
| 20260502020031 | 71 | 14 | 3.0 | 6.0 | 0.00 | 0.00 | 0.00 | 43 | 1014.2 |
| 20260502014531 | 73 | 339 | 3.0 | 6.0 | 0.00 | 0.00 | 0.00 | 40 | 1014.1 |
| 20260502013030 | 73 | 314 | 2.0 | 4.0 | 0.00 | 0.00 | 0.00 | 38 | 1014.1 |
| 20260502011529 | 74 | 290 | 3.0 | 6.0 | 0.00 | 0.00 | 0.00 | 37 | 1014.1 |
| 20260502010145 | 73 | 323 | 3.0 | 7.0 | 0.00 | 0.00 | 0.00 | 37 | 1014.1 |
| 20260502004530 | 74 | 268 | 4.0 | 7.0 | 0.00 | 0.00 | 0.00 | 37 | 1014.1 |
| 20260502003026 | 75 | 294 | 5.0 | 10.0 | 0.00 | 0.00 | 0.00 | 37 | 1014.3 |
| 20260502000033 | 73 | 266 | 4.0 | 6.0 | 0.00 | 0.00 | 0.00 | 39 | 1014.5 |
| 20260501234531 | 72 | 265 | 3.0 | 7.0 | 0.00 | 0.00 | 0.00 | 39 | 1014.6 |
| 20260501233032 | 73 | 299 | 4.0 | 9.0 | 0.00 | 0.00 | 0.00 | 37 | 1014.7 |
| 20260501231530 | 74 | 291 | 6.0 | 11.0 | 0.00 | 0.00 | 0.00 | 38 | 1015.0 |
| 20260501230029 | 73 | 302 | 5.0 | 11.0 | 0.00 | 0.00 | 0.00 | 38 | 1015.2 |
| 20260501224532 | 73 | 274 | 6.0 | 11.0 | 0.00 | 0.00 | 0.00 | 39 | 1015.4 |
| 20260501223030 | 73 | 286 | 6.0 | 13.0 | 0.00 | 0.00 | 0.00 | 39 | 1015.6 |
| 20260501221532 | 72 | 286 | 5.0 | 10.0 | 0.00 | 0.00 | 0.00 | 41 | 1015.8 |
| 20260501220029 | 71 | 283 | 6.0 | 12.0 | 0.00 | 0.00 | 0.00 | 42 | 1016.0 |
| 20260501214531 | 72 | 293 | 6.0 | 12.0 | 0.00 | 0.00 | 0.00 | 42 | 1016.1 |
| 20260501213028 | 71 | 291 | 5.0 | 8.0 | 0.00 | 0.00 | 0.00 | 43 | 1016.3 |
| 20260501211531 | 70 | 275 | 4.0 | 10.0 | 0.00 | 0.00 | 0.00 | 43 | 1016.4 |
| 20260501210029 | 69 | 250 | 4.0 | 9.0 | 0.00 | 0.00 | 0.00 | 44 | 1016.7 |